When you browse on this site, cookies collect data to enhance your experience and personalize the content and advertising you see.
Visit our Privacy Policy to learn more. By continuing to use the site, you agree to this use of cookies and data.
  • en Suisse
  • Liste des pays
  • À 7 jours
  • Température de l'eau
  • Carte satellitaire
  • Carte météo
  • Widgets météo
  • user-avatar
    Se connecter

    Météo par heure à Krajanka

    Ce jour, 20 Juin, Jeudi

    Heure Température Précipitation Vent Pression Humidité
    00:00 +20°C° 0 mm 2 m/s 742 mmHg 80%
    01:00 +19°C° 0 mm 3 m/s 742 mmHg 80%
    02:00 +19°C° 0.2 mm 2 m/s 742 mmHg 82%
    03:00 +19°C° 0.2 mm 2 m/s 741 mmHg 83%
    04:00 +18°C° 0.2 mm 2 m/s 741 mmHg 84%
    05:00 +20°C° 0.2 mm 2 m/s 741 mmHg 81%
    06:00 +21°C° 0.2 mm 2 m/s 742 mmHg 78%
    07:00 +23°C° 0 mm 2 m/s 742 mmHg 74%
    08:00 +25°C° 0.1 mm 2 m/s 742 mmHg 68%
    09:00 +26°C° 0.1 mm 3 m/s 742 mmHg 63%
    10:00 +28°C° 0.1 mm 3 m/s 742 mmHg 57%
    11:00 +29°C° 0 mm 3 m/s 742 mmHg 54%
    12:00 +29°C° 0 mm 2 m/s 742 mmHg 50%
    13:00 +30°C° 0 mm 2 m/s 742 mmHg 46%
    14:00 +30°C° 0 mm 2 m/s 741 mmHg 45%
    15:00 +31°C° 0 mm 1 m/s 741 mmHg 44%
    16:00 +31°C° 0 mm 1 m/s 741 mmHg 43%
    17:00 +29°C° 0.1 mm 1 m/s 741 mmHg 49%
    18:00 +28°C° 0.1 mm 2 m/s 741 mmHg 55%
    19:00 +26°C° 0.1 mm 3 m/s 741 mmHg 62%
    20:00 +24°C° 0.8 mm 3 m/s 742 mmHg 69%
    21:00 +21°C° 0.8 mm 3 m/s 742 mmHg 77%
    22:00 +18°C° 0.8 mm 2 m/s 743 mmHg 85%
    23:00 +18°C° 0.1 mm 2 m/s 743 mmHg 86%

    Demain, 21 Juin, Vendredi

    Heure Température Précipitation Vent Pression Humidité
    00:00 +19°C° 0.1 mm 1 m/s 743 mmHg 87%
    01:00 +19°C° 0.1 mm 1 m/s 743 mmHg 88%
    02:00 +18°C° 0 mm 1 m/s 743 mmHg 88%
    03:00 +17°C° 0 mm 2 m/s 743 mmHg 87%
    04:00 +17°C° 0 mm 2 m/s 743 mmHg 87%
    05:00 +18°C° 0 mm 2 m/s 744 mmHg 84%
    06:00 +20°C° 0 mm 2 m/s 744 mmHg 82%
    07:00 +21°C° 0 mm 3 m/s 745 mmHg 79%
    08:00 +22°C° 0.1 mm 3 m/s 745 mmHg 74%
    09:00 +25°C° 0.1 mm 3 m/s 745 mmHg 69%
    10:00 +26°C° 0.1 mm 3 m/s 745 mmHg 63%
    11:00 +26°C° 0.2 mm 3 m/s 745 mmHg 63%
    12:00 +26°C° 0.2 mm 3 m/s 745 mmHg 63%
    13:00 +26°C° 0.2 mm 2 m/s 745 mmHg 63%
    14:00 +26°C° 0.8 mm 2 m/s 745 mmHg 63%
    15:00 +26°C° 0.8 mm 3 m/s 745 mmHg 63%
    16:00 +26°C° 0.8 mm 3 m/s 745 mmHg 63%
    17:00 +25°C° 0.7 mm 2 m/s 745 mmHg 68%
    18:00 +24°C° 0.7 mm 2 m/s 745 mmHg 74%
    19:00 +23°C° 0.7 mm 2 m/s 745 mmHg 79%
    20:00 +21°C° 0.3 mm 2 m/s 745 mmHg 83%
    21:00 +20°C° 0.3 mm 2 m/s 746 mmHg 87%
    22:00 +19°C° 0.3 mm 3 m/s 746 mmHg 90%
    23:00 +18°C° 0 mm 3 m/s 746 mmHg 92%

    Après-demain, 22 Juin, Samedi

    Heure Température Précipitation Vent Pression Humidité
    00:00 +18°C° 0 mm 3 m/s 747 mmHg 94%
    01:00 +17°C° 0 mm 3 m/s 747 mmHg 96%
    02:00 +17°C° 0 mm 3 m/s 747 mmHg 96%
    03:00 +17°C° 0 mm 3 m/s 747 mmHg 97%
    04:00 +16°C° 0 mm 3 m/s 748 mmHg 98%
    05:00 +17°C° 0 mm 4 m/s 748 mmHg 95%
    06:00 +17°C° 0 mm 4 m/s 748 mmHg 92%
    07:00 +17°C° 0 mm 5 m/s 749 mmHg 89%
    08:00 +19°C° 0 mm 5 m/s 749 mmHg 84%
    09:00 +20°C° 0 mm 5 m/s 749 mmHg 79%
    10:00 +21°C° 0 mm 5 m/s 749 mmHg 73%
    11:00 +22°C° 0 mm 5 m/s 749 mmHg 71%
    12:00 +22°C° 0 mm 5 m/s 749 mmHg 68%
    13:00 +22°C° 0 mm 5 m/s 749 mmHg 65%
    14:00 +23°C° 0 mm 5 m/s 748 mmHg 64%
    15:00 +23°C° 0 mm 6 m/s 748 mmHg 63%
    16:00 +23°C° 0 mm 6 m/s 748 mmHg 61%
    17:00 +22°C° 0 mm 5 m/s 748 mmHg 66%
    18:00 +22°C° 0 mm 5 m/s 748 mmHg 70%
    19:00 +21°C° 0 mm 4 m/s 748 mmHg 75%
    20:00 +20°C° 0 mm 5 m/s 748 mmHg 75%
    21:00 +19°C° 0 mm 5 m/s 748 mmHg 75%
    22:00 +17°C° 0 mm 5 m/s 748 mmHg 76%
    23:00 +17°C° 0 mm 5 m/s 749 mmHg 77%

    23 Juin, Dimanche

    Heure Température Précipitation Vent Pression Humidité
    00:00 +16°C° 0 mm 5 m/s 749 mmHg 78%
    01:00 +16°C° 0 mm 5 m/s 749 mmHg 79%
    02:00 +15°C° 0 mm 5 m/s 749 mmHg 77%
    03:00 +15°C° 0 mm 5 m/s 749 mmHg 75%
    04:00 +14°C° 0 mm 4 m/s 749 mmHg 73%
    05:00 +14°C° 0.1 mm 4 m/s 749 mmHg 75%
    06:00 +14°C° 0.1 mm 4 m/s 749 mmHg 76%
    07:00 +13°C° 0.1 mm 4 m/s 749 mmHg 77%
    08:00 +14°C° 0 mm 4 m/s 749 mmHg 77%
    09:00 +17°C° 0 mm 4 m/s 750 mmHg 76%
    10:00 +18°C° 0 mm 4 m/s 750 mmHg 75%
    11:00 +19°C° 0 mm 4 m/s 750 mmHg 73%
    12:00 +19°C° 0 mm 5 m/s 750 mmHg 72%
    13:00 +20°C° 0 mm 5 m/s 750 mmHg 70%
    14:00 +21°C° 0 mm 5 m/s 750 mmHg 70%
    15:00 +21°C° 0 mm 5 m/s 750 mmHg 69%
    16:00 +21°C° 0 mm 4 m/s 749 mmHg 69%
    17:00 +21°C° 0 mm 4 m/s 750 mmHg 70%
    18:00 +21°C° 0 mm 4 m/s 750 mmHg 72%
    19:00 +20°C° 0 mm 4 m/s 750 mmHg 74%
    20:00 +19°C° 0 mm 3 m/s 750 mmHg 79%
    21:00 +18°C° 0 mm 3 m/s 751 mmHg 83%
    22:00 +17°C° 0 mm 3 m/s 751 mmHg 88%
    23:00 +16°C° 0 mm 3 m/s 751 mmHg 89%

    24 Juin, Lundi

    Heure Température Précipitation Vent Pression Humidité
    00:00 +16°C° 0 mm 3 m/s 751 mmHg 90%
    01:00 +14°C° 0 mm 3 m/s 751 mmHg 91%
    02:00 +14°C° 0 mm 3 m/s 751 mmHg 91%
    03:00 +13°C° 0 mm 3 m/s 751 mmHg 91%
    04:00 +13°C° 0 mm 3 m/s 751 mmHg 91%
    05:00 +14°C° 0 mm 3 m/s 751 mmHg 87%
    06:00 +17°C° 0 mm 3 m/s 752 mmHg 83%
    07:00 +19°C° 0 mm 3 m/s 752 mmHg 79%
    08:00 +20°C° 0 mm 3 m/s 752 mmHg 76%
    09:00 +22°C° 0 mm 4 m/s 752 mmHg 73%
    10:00 +23°C° 0 mm 4 m/s 752 mmHg 69%
    11:00 +25°C° 0 mm 4 m/s 752 mmHg 68%
    12:00 +25°C° 0 mm 4 m/s 752 mmHg 67%
    13:00 +26°C° 0 mm 3 m/s 752 mmHg 66%
    14:00 +26°C° 0 mm 3 m/s 752 mmHg 66%
    15:00 +26°C° 0 mm 3 m/s 752 mmHg 65%
    16:00 +26°C° 0 mm 3 m/s 752 mmHg 65%
    17:00 +26°C° 0.1 mm 3 m/s 752 mmHg 70%
    18:00 +25°C° 0.1 mm 3 m/s 752 mmHg 74%
    19:00 +24°C° 0.1 mm 2 m/s 752 mmHg 79%
    20:00 +23°C° 0 mm 2 m/s 752 mmHg 83%
    21:00 +21°C° 0 mm 2 m/s 753 mmHg 87%
    22:00 +20°C° 0 mm 2 m/s 753 mmHg 92%
    23:00 +20°C° 0 mm 3 m/s 753 mmHg 92%

    25 Juin, Mardi

    Heure Température Précipitation Vent Pression Humidité
    00:00 +19°C° 0 mm 3 m/s 753 mmHg 93%
    01:00 +19°C° 0 mm 3 m/s 753 mmHg 94%
    02:00 +19°C° 0 mm 3 m/s 753 mmHg 95%
    03:00 +18°C° 0 mm 3 m/s 753 mmHg 96%
    04:00 +18°C° 0 mm 3 m/s 753 mmHg 96%
    05:00 +19°C° 0 mm 3 m/s 753 mmHg 92%
    06:00 +21°C° 0 mm 3 m/s 753 mmHg 89%
    07:00 +22°C° 0 mm 3 m/s 753 mmHg 85%
    08:00 +24°C° 0 mm 3 m/s 753 mmHg 79%
    09:00 +25°C° 0 mm 3 m/s 753 mmHg 74%
    10:00 +27°C° 0 mm 3 m/s 753 mmHg 69%
    11:00 +27°C° 0 mm 3 m/s 753 mmHg 67%
    12:00 +28°C° 0 mm 3 m/s 753 mmHg 65%
    13:00 +28°C° 0 mm 3 m/s 753 mmHg 63%
    14:00 +28°C° 0 mm 3 m/s 753 mmHg 63%
    15:00 +28°C° 0 mm 3 m/s 753 mmHg 63%
    16:00 +28°C° 0 mm 3 m/s 752 mmHg 63%
    17:00 +28°C° 0 mm 3 m/s 752 mmHg 66%
    18:00 +27°C° 0 mm 3 m/s 752 mmHg 70%
    19:00 +26°C° 0 mm 3 m/s 752 mmHg 74%
    20:00 +25°C° 0 mm 3 m/s 753 mmHg 76%
    21:00 +24°C° 0 mm 3 m/s 753 mmHg 79%
    22:00 +22°C° 0 mm 3 m/s 753 mmHg 81%
    23:00 +21°C° 0 mm 2 m/s 753 mmHg 83%
    Voir plus